View from above orbital plane
|
View from above satellite
|
Ground track
|
The orbit data is extracted from the following two-line orbital elements,
1 23657U 95046A 21059.82819891 .00000216 00000-0 21796-4 0 9998
2 23657 82.5243 69.7032 0020466 284.3217 75.5727 14.86252244378369
Epoch (UTC): | 28 February 2021 19:52:36 |
Eccentricity: | 0.0020466 |
inclination: | 82.5243° |
perigee height: | 595 km |
apogee height: | 624 km |
right ascension of ascending node: | 69.7032° |
argument of perigee: | 284.3217° |
revolutions per day: | 14.86252244 |
mean anomaly at epoch: | 75.5727° |
orbit number at epoch: | 37836 |
The dashed part of the orbit path shows where the satellite is in the earth's shadow,
|
|